Other Public Products
Issued by NWS Grand Forks, ND

Home | Current Version | Previous Version | Graphics & Text | Print | Product List | Glossary On
Versions: 1 2 3 4 5 6 7 8 9 10 11 12 13 14 15 16 17 18 19 20 21 22 23 24 25 26 27 28 29 30 31 32 33 34 35 36 37 38 39 40 41 42 43 44 45 46 47 48 49 50
453
FPUS83 KFGF 100710
OPUFGF
PRAIRIE TO PINES WEATHER ROUNDUP
NATIONAL WEATHER SERVICE EASTERN NORTH DAKOTA/GRAND FORKS ND
100 AM CST WED FEB 10 2016

 **SATELLITE DATA USED TO AUGMENT SKY COVER AT AUTOMATED STATIONS**
 *****  WEATHER ACROSS EASTERN NORTH DAKOTA  *****

CITY           SKY/WX    TMP DP  RH WIND       PRES   REMARKS
GRAND FORKS    CLOUDY     5  -4  66 N7        30.20F WCI  -7
GRAND FORKS AF CLOUDY     4  -4  71 E6        30.18F WCI  -7
GRAND CITY NWS NOT AVBL
BUXTON           N/A      4   0  86 NE7         N/A  WCI  -9
DEVILS LAKE    LGT SNOW   6   2  83 E14       30.09F FOG     WCI -11
FARGO          CLOUDY     4  -2  76 NE5       30.18F WCI  -5
WAHPETON ARPT  CLOUDY     7   1  78 NE3       30.17F
$$

 *****  WEATHER ACROSS CENTRAL AND WESTERN NORTH DAKOTA  *****

CITY           SKY/WX    TMP DP  RH WIND       PRES   REMARKS
JAMESTOWN      LGT SNOW  11   5  77 SE8       30.08F WCI  -1
BISMARCK       CLOUDY    28  20  71 E16       29.99F WCI  16
MINOT          LGT SNOW  19  12  74 E13       29.97F VSB 1   WCI   6
MINOT AFB      LGT SNOW  17  15  94 SE15      29.97F FOG     WCI   2
GARRISON         N/A     24  20  84 SE14      29.95F WCI  12
WILLISTON      PTCLDY    28  23  81 SW3       29.89F
DICKINSON      PTCLDY    32  25  75 W8        29.88F WCI  25
HETTINGER      PTCLDY    26  20  77 W5        29.93F WCI  20
$$

 *****  OTHER OBSERVATIONS NORTHEAST NORTH DAKOTA  *****

CITY           SKY/WX    TMP DP  RH WIND       PRES   REMARKS
WALHALLA       FAIR       3  -2  78 E6        30.18F WCI  -8
LANGDON        FAIR       3   0  85 E13       30.09F WCI -14
CAVALIER       FAIR       1  -4  78 E8        30.20F WCI -12
GRAFTON        FAIR       1  -6  71 NE6       30.21F WCI -10
CANDO          NOT AVBL
FORT TOTTEN      N/A      7   3  83 SE7       29.95S WCI  -5
ROLLA          LGT SNOW   7   3  85 SE12      30.03F WCI  -9
RUGBY          FAIR      10   7  85 SE16      30.03F WCI  -7
 ***** THE ABOVE OBSERVATIONS ARE NON NWS ARE NOT QUALITY
        CONTROLLED AND MAY MIS-REPORT RAIN FOR SNOW...
$$

 *****  OTHER OBSERVATIONS SOUTHEAST NORTH DAKOTA *****

CITY           SKY/WX    TMP DP  RH WIND       PRES   REMARKS
COOPERSTOWN    NOT AVBL
VALLEY CITY    PTSUNNY    9   5  85 E10       30.13F WCI  -6
OAKES          FAIR      12   7  79 E10       30.10F WCI  -1
GWINNER        CLOUDY    12   9  85 E9        30.12F WCI   0
SHEYENNE NWR     N/A      9   4  78 E7        29.95  WCI  -2
BUFFALO          N/A      6  -2  70 NE8         N/A  WCI  -7
WYNDMERE       NOT AVBL
 ***** THE ABOVE OBSERVATIONS ARE NON NWS ARE NOT QUALITY
       CONTROLLED AND MAY MIS-REPORT RAIN FOR SNOW...
$$

  *****  WEATHER ACROSS NORTHERN MINNESOTA  *****

CITY           SKY/WX    TMP DP  RH WIND       PRES   REMARKS
FLAG ISLAND    PTCLDY   -11 -15  84 CALM      30.17F
WARROAD        CLOUDY    -8 -11  84 N5        30.17F WCI -19
ROSEAU         PTCLDY   -11 -17  77 CALM      30.18S
HALLOCK        PTCLDY    -2  -9  71 CALM      30.19F
THF RVR FALLS  CLOUDY    -2  -8  78 CALM      30.18S
HALSTAD        NOT AVBL
FOSSTON          N/A    -11 -17  77 CALM      30.15S
BAUDETTE       PTCLDY   -13 -19  75 N3        30.14F
WASKISH        CLOUDY   -15 -18  84 CALM      30.14F
CROOKSTON      CLOUDY     1  -4  78 NE5       30.20F WCI  -8
$$
  *****  WEATHER ACROSS CENTRAL AND WEST MINNESOTA  *****

CITY           SKY/WX    TMP DP  RH WIND       PRES   REMARKS
BEMIDJI        CLOUDY    -9 -13  83 CALM      30.12S
PARK RAPIDS    CLOUDY    -6 -11  79 CALM      30.09F
WADENA         CLOUDY    -4  -8  84 W3        30.12F
DETROIT LAKES  CLOUDY     0  -4  85 CALM      30.13F
MOORHEAD       CLOUDY     3  -2  78 NE3       30.18F
FERGUS FALLS   CLOUDY     3   0  85 CALM      30.18F
ELBOW LAKE     FAIR       4   0  80 E3        30.14F
MORRIS MN      CLOUDY     9   1  72 NE5       30.14F WCI   0
STAPLES        CLOUDY    -6  -9  84 CALM      30.12F
WHEATON        CLOUDY    10   3  72 N3        30.18F
$$
  *****  WEATHER ELSEWHERE ACROSS MINNESOTA  *****

CITY           SKY/WX    TMP DP  RH WIND       PRES   REMARKS
DULUTH         PTCLDY    -4  -9  79 NW8       30.03F WCI -19
INTRNTL FALLS  CLOUDY   -10 -15  78 N5        30.13S HAZE    WCI -22
ELY            CLOUDY    -4  -9  77 N5        30.03F WCI -15
CLOQUET        CLOUDY    -2  -9  71 NW8       30.06F WCI -17
BRAINERD       CLOUDY    -4  -9  79 CALM      30.12F
HIBBING        CLOUDY   -13 -16  86 NW7       30.08F WCI -29
ALEXANDRIA     CLOUDY     2  -3  80 N7        30.12F WCI -11
SAINT CLOUD    CLOUDY     3  -4  72 N5        30.13F WCI  -6
MINNEAPOLIS    PTCLDY     7  -4  60 N12       30.15S WCI  -8
$$

  *****  WEATHER ACROSS SOUTH DAKOTA  *****

CITY           SKY/WX    TMP DP  RH WIND       PRES   REMARKS
SIOUX FALLS    CLOUDY    20  12  71 S5        30.11F WCI  13
BROOKINGS      MOCLDY    16  10  77 E7        30.09S WCI   6
WATERTOWN      CLOUDY    15   7  70 E8        30.07F WCI   4
HURON          CLOUDY    26  19  74 SE6       30.06F WCI  19
SISSETON         N/A     12   6  77 E6        30.12F WCI   3
ABERDEEN       CLOUDY    20  11  68 E12       30.09F WCI   8
MITCHELL       CLOUDY    27  20  75 SE8       30.07F WCI  19
PIERRE         CLOUDY    31  25  78 CALM      29.99F
MOBRIDGE       CLOUDY    31  23  72 SE6       29.96F
RAPID CITY     CLEAR     28  24  85 NW3       29.98F
$$

  *****  SOME WEATHER IN NEARBY STATES *****

CITY           SKY/WX    TMP DP  RH WIND       PRES   REMARKS
GLASGOW MT     CLOUDY    37  29  72 NW5       29.89F
GREAT FALLS MT CLOUDY    44  22  41 SW16      30.06F
CHEYENNE WY    CLOUDY    39  17  41 W15       30.20F
SCOTTSBLUFF NE CLEAR     31  25  78 N3        30.14F
OMAHA NE       CLOUDY    21  16  81 SE5       30.19F WCI  15
DES MOINES IA  CLOUDY    16   7  67 N5        30.16F WCI   9
DAVENPORT IA   CLEAR     10   0  63 NW12      30.09R WCI  -5
CHICAGO IL     MOCLDY    14   5  67 NW16      29.94S WCI  -2
EAU CLAIRE WI  PTCLDY     4  -7  60 NW9       30.09R WCI -10
LA CROSSE WI   CLEAR      3  -7  63 NW8       30.09F WCI -10
$$

  *****  SOME NATIONAL WEATHER *****

CITY           SKY/WX    TMP DP  RH WIND       PRES   REMARKS
LA GUARDIA NY  LGT SNOW  33  27  78 S5        29.59S
RALEIGH NC     PTCLDY    28  13  53 W3        29.83F
ATLANTA GA     MOCLDY    26  14  60 W13G21    30.01R WCI  15
NEW ORLEANS LA CLEAR     41  25  53 NW8       30.23S
OKLAHOMA CITY  CLEAR     30  20  66 W3        30.29F
ALBUQUERQUE NM CLOUDY    42  21  43 NW6       30.39S
SALT LAKE CITY PTCLDY    28  26  92 W5        30.49R FOG     WCI  23
LOS ANGELES CA PTCLDY    67  42  40 E3        30.10S
BOISE ID       PTCLDY    30  28  92 CALM      30.43F
SEATTLE WA     PTCLDY    53  37  54 SE5       30.11S
$$

*** WEATHER ACROSS MANITOBA...SASKATCHEWAN AND ONTARIO ***
                ***ONTARIO***

CITY           SKY/WX    TMP DP  RH WIND       PRES   REMARKS
GERALDTON      PTCLDY   -11 -18  70 N8        29.98F WCI -28
THUNDER BAY    CLEAR     -8 -15  71 NW8       30.11S WCI -23
SIOUX LOOKOUT  CLEAR    -22 -27  76 N3        30.12F
TORONTO        LGT SNOW  28  25  86 NW15      29.49R WCI  17
BIG TROUT LK   CLEAR    -26 -31  75 NW6       30.16F WCI -42
PICKLE LAKE    NOT AVBL
DRYDEN         CLEAR    -15 -20  76 NE5       30.11F WCI -27
KENORA         CLEAR    -11 -15  84 N5        30.14F WCI -23
$$
                *** MANITOBA***

CITY           SKY/WX    TMP DP  RH WIND       PRES   REMARKS
BRANDON        LGT SNOW   5   1  85 E9        30.09F WCI  -9
DAUPHIN        MOCLDY     5   1  85 E8        30.11F WCI  -8
ISLAND LAKE    CLEAR    -29 -35  75 CALM      30.23F
PILOT MOUND      N/A      3   0  85 SE9         N/A  WCI -11
THE PAS        CLOUDY    -4  -9  77 E7        30.13F WCI -18
THOMPSON       FLURRIES -17 -22  76 CALM      30.24S
WINNIPEG       MOCLDY    -4 -11  71 NE5       30.22F WCI -15
LYNN LAKE      LGT SNOW  -8 -11  84 SE7       30.12S WCI -22
CHURCHILL      CRYSTALS -29 -36  68 W6        30.29S WCI -46
GILLAM         CLEAR    -26 -31  75 VRB2      30.26F
$$
                ***SASKATCHEWAN***

CITY           SKY/WX    TMP DP  RH WIND       PRES   REMARKS
ESTEVAN        CLOUDY    21  18  86 SE17G23   29.88F WCI   7
KINDERSLEY     NOT AVBL
LLOYDMINSTER   CLEAR     34  30  86 NW9       29.92R
PRINCE ALBERT  FRZ RAIN  16  14  93 E8        29.90F WCI   5
REGINA         NOT AVBL
YORKTON        LGT SNOW  12  10  92 SE15G21   29.93F WCC1F1C2F2C3F3C4F4C5F5C6F6C7F7C8F8C9F9CaFaCbFbCcFcCdFdCe!



USA.gov is the U.S. government's official web portal to all federal, state and local government web resources and services.